Location: Arborea
(39.7744°N, 8.5819°E)
Time: 03:08:31
(UTC+00:00)

USA 229 - Pass Details

Date: 01 June 2022
Orbit: 938 x 1274 km, 63.4° (Epoch: 24 May)

Event Time Altitude Azimuth Distance (km) Brightness Sun altitude
Rises 23:31:29 0° 320° (NW) 4,030 7.4 -28.0°
Reaches altitude 10° 23:34:15 10° 315° (NW) 3,110 6.6 -28.0°
Maximum altitude 23:41:22 47° 245° (WSW) 1,582 4.3 -27.9°
Enters shadow 23:41:47 47° 235° (SW) 1,593 4.3 -27.9°
